Носовая

Россия / Ненецкий автономный округ     68°14′56″N   54°34′26″E
темп.,
°C
ветер,
м/с
пор.,
м/с
влажн.,
%
обл.,
%
осадки,
мм/ч
давл.,
гПа
погр.,
м
26 октября, вт
вт2600:00−2зсз696870 0.6 1007269
03:00−2сз81164100 0.9 1007368
06:00−2зсз7970100 1.0 1006304
09:00−2ссз4668100 2.1 1006205
12:00−2ссз686754 0.7 1007259
15:00−3сз68678 0.7 1008278
18:00−2ссз686995 0.3 1008256
21:00−2ссз5771100 0.9 1009224
27 октября, ср
ср2700:00−3ссз4575100 0.6 1009167
03:00−4ссз2276100 1.3 100993
06:00−5ю1180100 0.4 1009113
09:00−7ю228694 0.6 100947
12:00−9ю339215 0.1 100847
15:00−11ююв339555 0.1 100842
18:00−10юв339340 0.0 100846
21:00−9юв339216 0.0 100754
28 октября, чт
чт2800:00−8вюв449076 0.0 100664
03:00−8в459171 0.0 100680
06:00−8в469361 0.0 1006122
09:00−8всв57865 0.0 1007141
12:00−6всв468370 0.0 1007186
15:00−2ссв91362100 0.1 1008510
18:00−2ссв10136296 0.3 1010500
21:00−3с696163 0.3 1011260
29 октября, пт
пт2900:00−2зсз7118397 0.5 1010582
03:00−2с91265100 1.1 1013477
06:00−3с7963100 0.3 1014351
09:00−4ссз6766100 0.4 1016274
12:00−4сз566496 0.0 1017253
15:00−6зсз3466100 0.0 1017165
18:00−7ююз4581100 0.0 1015121
21:00−6ю5782100 0.0 1012167
30 октября, сб
сб3000:00−6ююв6996100 0.2 1010301
03:00−6юв5796100 0.4 1009219
06:00−6юв569696 0.2 1009187
09:00−8ююв459549 0.2 1011102
12:00−9ююв349659 0.0 101279
15:00−10ююв3497100 0.0 101375
18:00−9ю459766 0.0 101395
21:00−10ю469891 0.0 1013108